TimeCDT,TemperatureF,Dew PointF,Humidity,Sea Level PressureIn,VisibilityMPH,Wind Direction,Wind SpeedMPH,Gust SpeedMPH,PrecipitationIn,Events,Conditions,WindDirDegrees,DateUTC
12:15 AM,75.2,69.8,83,29.82,10.0,South,13.8,-,N/A,,Clear,180,2013-09-19 05:15:00
12:35 AM,73.4,69.8,88,29.82,10.0,South,13.8,-,N/A,,Clear,180,2013-09-19 05:35:00
12:55 AM,73.4,69.8,88,29.82,10.0,South,12.7,-,N/A,,Clear,180,2013-09-19 05:55:00
1:15 AM,73.4,69.8,88,29.82,10.0,South,11.5,-,N/A,,Clear,180,2013-09-19 06:15:00
1:35 AM,73.4,69.8,88,29.82,10.0,South,12.7,-,N/A,,Clear,180,2013-09-19 06:35:00
1:55 AM,73.4,69.8,88,29.83,10.0,South,13.8,-,N/A,,Clear,190,2013-09-19 06:55:00
2:15 AM,73.4,69.8,88,29.83,10.0,South,13.8,-,N/A,,Clear,180,2013-09-19 07:15:00
2:35 AM,73.4,69.8,88,29.83,10.0,South,13.8,-,N/A,,Clear,180,2013-09-19 07:35:00
2:55 AM,71.6,69.8,94,29.82,10.0,South,11.5,18.4,N/A,,Clear,180,2013-09-19 07:55:00
3:15 AM,71.6,69.8,94,29.82,10.0,South,12.7,-,N/A,,Clear,180,2013-09-19 08:15:00
3:35 AM,71.6,69.8,94,29.82,10.0,South,11.5,-,N/A,,Clear,180,2013-09-19 08:35:00
3:55 AM,71.6,68.0,88,29.82,10.0,South,10.4,-,N/A,,Clear,180,2013-09-19 08:55:00
4:15 AM,69.8,68.0,94,29.82,10.0,South,10.4,-,N/A,,Clear,180,2013-09-19 09:15:00
4:35 AM,71.6,68.0,88,29.82,10.0,South,10.4,-,N/A,,Clear,180,2013-09-19 09:35:00
4:55 AM,71.6,68.0,88,29.81,10.0,South,10.4,-,N/A,,Clear,170,2013-09-19 09:55:00
5:15 AM,71.6,68.0,88,29.80,10.0,South,13.8,-,N/A,,Clear,180,2013-09-19 10:15:00
5:35 AM,71.6,68.0,88,29.81,10.0,South,13.8,19.6,N/A,,Clear,180,2013-09-19 10:35:00
5:55 AM,69.8,68.0,94,29.81,10.0,South,11.5,-,N/A,,Clear,180,2013-09-19 10:55:00
6:15 AM,69.8,68.0,94,29.81,10.0,South,12.7,-,N/A,,Scattered Clouds,190,2013-09-19 11:15:00
6:35 AM,69.8,68.0,94,29.82,10.0,South,12.7,-,N/A,,Overcast,180,2013-09-19 11:35:00
6:55 AM,69.8,68.0,94,29.82,10.0,South,15.0,-,N/A,,Overcast,180,2013-09-19 11:55:00
7:15 AM,69.8,68.0,94,29.82,10.0,South,13.8,-,N/A,,Scattered Clouds,190,2013-09-19 12:15:00
7:35 AM,69.8,68.0,94,29.82,9.0,South,15.0,-,N/A,,Mostly Cloudy,180,2013-09-19 12:35:00
7:55 AM,71.6,68.0,88,29.83,10.0,WSW,5.8,-,N/A,,Mostly Cloudy,240,2013-09-19 12:55:00
8:15 AM,73.4,68.0,83,29.83,10.0,SSW,11.5,-,N/A,,Scattered Clouds,210,2013-09-19 13:15:00
8:35 AM,73.4,68.0,83,29.83,7.0,SSW,9.2,-,N/A,Rain,Light Rain,210,2013-09-19 13:35:00
8:55 AM,71.6,68.0,88,29.84,10.0,SW,8.1,-,0.01,,Mostly Cloudy,220,2013-09-19 13:55:00
9:15 AM,71.6,68.0,88,29.84,6.0,SSW,9.2,-,N/A,,Scattered Clouds,210,2013-09-19 14:15:00
9:35 AM,73.4,68.0,83,29.85,10.0,SSW,8.1,-,N/A,,Mostly Cloudy,210,2013-09-19 14:35:00
9:55 AM,73.4,69.8,88,29.85,9.0,SSW,10.4,-,N/A,,Scattered Clouds,210,2013-09-19 14:55:00
10:15 AM,73.4,68.0,83,29.86,10.0,SW,9.2,-,N/A,,Clear,220,2013-09-19 15:15:00
10:35 AM,73.4,68.0,83,29.85,10.0,SW,10.4,-,N/A,,Clear,220,2013-09-19 15:35:00
10:55 AM,77.0,69.8,78,29.86,10.0,SW,13.8,23.0,N/A,,Clear,220,2013-09-19 15:55:00
11:15 AM,78.8,68.0,69,29.87,10.0,SSW,19.6,-,N/A,,Clear,210,2013-09-19 16:15:00
11:35 AM,78.8,69.8,74,29.86,10.0,South,12.7,21.9,N/A,,Clear,190,2013-09-19 16:35:00
11:55 AM,78.8,68.0,69,29.85,10.0,South,12.7,19.6,N/A,,Clear,190,2013-09-19 16:55:00
12:15 PM,77.0,69.8,78,29.85,10.0,South,12.7,18.4,N/A,,Clear,190,2013-09-19 17:15:00
12:35 PM,80.6,69.8,70,29.85,10.0,SSW,11.5,-,N/A,,Clear,210,2013-09-19 17:35:00
12:55 PM,80.6,69.8,70,29.85,10.0,SSW,13.8,-,N/A,,Clear,210,2013-09-19 17:55:00
1:15 PM,82.4,69.8,66,29.84,10.0,SSW,10.4,17.3,N/A,,Clear,210,2013-09-19 18:15:00
1:35 PM,84.2,68.0,58,29.83,10.0,SSW,13.8,-,N/A,,Clear,200,2013-09-19 18:35:00
1:55 PM,84.2,68.0,58,29.81,10.0,SSW,13.8,-,N/A,,Partly Cloudy,210,2013-09-19 18:55:00
2:15 PM,84.2,68.0,58,29.79,10.0,SSW,11.5,18.4,N/A,,Scattered Clouds,210,2013-09-19 19:15:00
2:35 PM,86.0,68.0,55,29.76,10.0,South,15.0,-,N/A,,Partly Cloudy,190,2013-09-19 19:35:00
2:55 PM,84.2,68.0,58,29.76,10.0,South,12.7,19.6,N/A,,Mostly Cloudy,190,2013-09-19 19:55:00
3:15 PM,84.2,68.0,58,29.75,10.0,SSW,15.0,23.0,N/A,,Mostly Cloudy,200,2013-09-19 20:15:00
3:35 PM,84.2,68.0,58,29.74,10.0,SSW,10.4,23.0,N/A,,Overcast,210,2013-09-19 20:35:00
3:55 PM,71.6,62.6,73,29.77,10.0,NNW,24.2,38.0,N/A,,Overcast,330,2013-09-19 20:55:00
4:15 PM,64.4,62.6,94,29.84,0.2,WNW,23.0,51.8,N/A,Rain,Heavy Rain,300,2013-09-19 21:15:00
4:35 PM,64.4,62.6,94,29.88,2.0,WSW,5.8,19.6,N/A,Rain,Light Rain,250,2013-09-19 21:35:00
4:55 PM,64.4,62.6,94,29.84,4.0,ESE,4.6,-,0.73,Rain,Light Rain,120,2013-09-19 21:55:00
5:15 PM,64.4,64.4,100,29.80,3.0,ENE,5.8,-,N/A,Rain,Light Rain,60,2013-09-19 22:15:00
5:35 PM,64.4,64.4,100,29.80,10.0,ENE,3.5,-,N/A,,Mostly Cloudy,60,2013-09-19 22:35:00
5:55 PM,64.4,64.4,100,29.81,10.0,ESE,6.9,-,0.04,,Light Drizzle,110,2013-09-19 22:55:00
6:15 PM,64.4,64.4,100,29.85,10.0,WNW,8.1,-,N/A,,Mostly Cloudy,300,2013-09-19 23:15:00
6:35 PM,66.2,64.4,94,29.86,10.0,West,6.9,-,N/A,,Mostly Cloudy,280,2013-09-19 23:35:00
6:55 PM,66.2,64.4,94,29.85,10.0,WNW,6.9,-,0.01,,Scattered Clouds,300,2013-09-19 23:55:00
7:15 PM,66.2,64.4,94,29.85,10.0,WNW,5.8,-,N/A,,Clear,290,2013-09-20 00:15:00
7:35 PM,66.2,64.4,94,29.86,10.0,WSW,3.5,-,N/A,,Mostly Cloudy,250,2013-09-20 00:35:00
7:55 PM,64.4,64.4,100,29.86,10.0,Calm,Calm,-,N/A,,Mostly Cloudy,0,2013-09-20 00:55:00
8:15 PM,66.2,64.4,94,29.88,10.0,SW,4.6,-,N/A,,Overcast,230,2013-09-20 01:15:00
8:35 PM,66.2,64.4,94,29.88,10.0,WSW,4.6,-,N/A,,Overcast,250,2013-09-20 01:35:00
8:55 PM,66.2,66.2,100,29.89,10.0,West,5.8,-,N/A,,Overcast,260,2013-09-20 01:55:00
9:15 PM,66.2,66.2,100,29.89,10.0,West,5.8,11.5,N/A,,Mostly Cloudy,270,2013-09-20 02:15:00
9:35 PM,66.2,62.6,88,29.90,10.0,WNW,10.4,-,N/A,,Scattered Clouds,300,2013-09-20 02:35:00
9:55 PM,66.2,60.8,83,29.90,10.0,NW,9.2,-,N/A,,Partly Cloudy,310,2013-09-20 02:55:00
10:15 PM,64.4,59.0,83,29.91,10.0,NW,11.5,-,N/A,,Partly Cloudy,310,2013-09-20 03:15:00
10:35 PM,62.6,57.2,82,29.91,10.0,WNW,9.2,-,N/A,,Scattered Clouds,300,2013-09-20 03:35:00
10:55 PM,62.6,57.2,82,29.91,10.0,NW,9.2,-,N/A,,Clear,310,2013-09-20 03:55:00
11:15 PM,62.6,57.2,82,29.92,10.0,NW,8.1,-,N/A,,Clear,310,2013-09-20 04:15:00
11:35 PM,62.6,55.4,77,29.93,10.0,NW,11.5,-,N/A,,Mostly Cloudy,310,2013-09-20 04:35:00
11:55 PM,62.6,55.4,77,29.93,10.0,WNW,13.8,-,N/A,,Overcast,300,2013-09-20 04:55:00